Temp
61 61 61 61 61 60 60 61 61 61 61 61 62 62 62 61 62 59 60 70 68 72 72 69 69 66 63 60 60 55 46 40 44 49 52 58 59 65 67 65 68 70 70 73 76
61 61 61 61 61 60 60 60 60 61 61 61 61 61 61 61 61 63 75 75 74 74 68 66 65 65 59 57 58 53 44 47 53 53 51 57 56 60 63 64 63 67 73 75 74
61 61 61 61 61 60 60 60 60 61 61 61 61 61 61 60 61 65 77 74 73 72 67 65 63 62 57 55 56 49 48 52 56 59 57 57 58 62 60 59 65 66 69 71 71
60 61 60 60 60 60 60 60 60 61 61 61 61 61 61 60 51 70 77 74 74 68 67 66 64 56 51 50 54 49 56 57 58 60 56 57 61 60 62 66 67 70 69 68 68
59 60 60 59 59 59 59 59 59 60 60 60 61 61 61 60 62 75 77 75 70 69 66 62 59 53 48 51 55 50 55 59 61 59 56 60 60 61 61 67 69 69 69 67 65
59 59 59 59 59 59 59 58 58 58 59 60 61 61 60 55 72 75 73 70 69 65 66 62 58 59 53 50 50 55 55 58 59 58 57 57 59 59 65 66 65 65 62 63 63
58 58 58 58 58 59 58 58 57 58 59 61 62 63 60 65 71 71 68 65 68 70 66 66 66 62 57 52 55 54 52 56 57 58 57 58 56 59 62 63 62 62 64 63 63
58 58 58 58 58 58 58 58 57 58 60 61 63 59 60 71 70 69 65 70 71 69 68 69 67 61 55 55 56 50 48 45 56 60 60 58 49 57 60 60 58 61 62 62 61
58 57 57 57 58 58 57 56 60 60 62 63 57 58 61 74 71 74 70 69 71 71 68 77 65 56 57 48 46 48 42 43 52 56 57 56 48 56 59 58 56 56 57 60 60
57 57 57 57 57 57 56 57 61 61 61 64 67 58 66 66 72 74 72 72 69 66 65 63 55 51 47 46 39 41 42 45 46 52 55 50 46 53 56 56 55 55 56 58 58
57 57 56 56 56 56 53 56 61 59 58 60 62 63 68 74 75 71 73 70 67 63 52 55 50 45 50 51 51 50 46 45 50 55 51 48 48 50 53 53 54 54 54 55 57
57 56 56 56 56 55 51 63 62 63 57 64 64 66 71 72 65 70 72 62 60 52 54 52 46 55 57 54 51 49 45 45 51 55 50 49 47 50 52 52 52 53 54 55 57
56 56 56 56 55 55 57 64 65 63 54 63 67 66 67 69 65 65 69 61 56 52 50 47 54 60 57 53 51 47 45 46 48 50 50 47 42 47 53 54 55 55 56 56 55
55 56 55 54 58 52 62 64 61 64 48 58 63 67 68 66 62 71 69 64 58 51 52 49 59 56 53 53 53 43 53 52 50 45 37 47 33 42 47 50 52 52 52 54 56
55 55 55 54 49 58 63 59 59 65 36 61 63 71 68 62 63 67 69 65 54 53 54 50 52 52 51 52 54 49 55 48 47 41 38 40 33 40 45 45 49 52 54 55 55
56 55 54 51 47 57 59 58 63 48 37 56 63 61 60 63 63 65 64 65 60 53 52 49 57 55 52 56 54 56 50 45 41 37 28 37 36 37 41 44 48 51 53 54 54
54 54 51 56 60 57 57 60 46 39 57 53 55 57 55 56 57 57 54 51 47 41 40 47 50 55 57 50 52 49 39 27 29 27 30 39 35 39 46 50 50 50 52 53 53
52 52 53 57 54 57 59 52 37 51 51 58 56 56 52 55 52 54 50 46 50 46 39 38 38 49 56 48 43 43 39 27 19 22 29 38 31 40 50 52 53 53 51 51 52
50 52 55 59 59 57 55 41 44 49 56 54 53 48 48 53 51 50 47 47 49 47 39 38 41 52 55 53 49 43 37 41 29 28 29 32 39 47 49 50 51 50 52 51 52
44 48 57 61 60 58 49 45 49 58 59 56 45 49 41 47 46 44 45 52 52 54 49 42 35 48 53 54 53 48 49 35 31 20 27 32 33 34 42 45 48 47 48 50 51
47 52 62 59 60 53 44 45 54 61 59 53 48 46 47 45 45 44 47 52 55 52 49 43 39 42 46 44 42 42 40 39 36 31 25 24 31 43 43 46 45 46 48 49 50
43 49 61 60 51 42 45 51 56 58 60 57 54 51 48 47 45 45 47 50 57 53 45 44 38 33 40 49 52 53 48 43 35 35 33 33 34 47 47 47 45 45 49 51 50
40 42 57 58 45 43 49 56 58 56 55 54 51 53 51 46 40 47 49 57 56 53 46 45 36 31 36 42 48 42 45 47 44 38 31 32 32 49 48 47 48 46 48 50 50
42 43 49 48 45 44 44 49 51 59 56 56 53 53 48 44 46 44 47 54 55 52 58 51 36 35 27 37 40 39 43 46 42 35 35 35 37 45 46 45 47 47 49 49 48
43 41 42 41 44 43 43 47 49 50 54 54 48 51 47 40 41 42 46 48 52 56 47 45 37 37 40 43 43 43 43 44 39 40 35 39 38 44 45 45 46 47 47 48 48
43 42 42 41 43 43 43 43 47 50 51 49 48 50 47 43 46 44 45 42 45 46 42 42 37 36 38 45 45 43 46 46 45 45 42 42 41 48 48 47 47 48 47 47 47
43 45 44 42 41 40 42 45 48 47 52 54 52 48 45 49 51 51 50 49 49 46 42 40 37 34 34 41 42 37 43 46 45 45 43 38 45 46 46 47 47 46 47 46 47
MSLP
1016.57 1016.20 1015.87 1015.61 1015.31 1015.02 1014.73 1014.43 1014.12 1013.78 1013.47 1013.14 1012.78 1012.43 1011.96 1011.38 1010.60 1010.86 1010.34 1009.70 1009.72 1009.72 1009.71 1009.57 1009.47 1009.66 1009.94 1010.57 1010.94 1011.63 1013.08 1013.87 1012.77 1011.86 1011.13 1010.44 1010.10 1009.28 1008.95 1008.72 1008.20 1007.96 1007.72 1007.53 1007.78
1016.67 1016.27 1015.86 1015.48 1015.18 1014.90 1014.63 1014.29 1013.96 1013.62 1013.23 1012.88 1012.58 1012.38 1011.99 1011.58 1011.01 1010.32 1009.27 1009.31 1009.68 1009.73 1009.76 1009.74 1009.77 1009.83 1010.58 1010.97 1011.31 1011.95 1012.93 1012.80 1011.99 1011.39 1011.05 1010.40 1009.96 1009.48 1009.22 1008.88 1008.45 1008.13 1007.75 1007.51 1007.62
1016.80 1016.35 1015.90 1015.46 1015.07 1014.80 1014.54 1014.23 1013.86 1013.46 1013.09 1012.74 1012.45 1012.30 1012.00 1011.65 1011.14 1009.80 1008.93 1009.36 1009.63 1009.74 1009.88 1009.98 1009.98 1010.12 1011.01 1011.26 1011.74 1012.08 1012.38 1012.18 1011.53 1011.00 1010.78 1010.38 1009.94 1009.46 1009.34 1009.10 1008.72 1008.34 1008.08 1007.91 1007.82
1016.91 1016.44 1015.97 1015.50 1015.02 1014.59 1014.30 1014.08 1013.80 1013.44 1013.03 1012.67 1012.35 1012.16 1011.86 1011.65 1010.90 1009.24 1009.04 1009.38 1009.61 1009.73 1009.80 1009.92 1010.12 1010.71 1011.56 1011.78 1011.82 1011.94 1011.88 1011.63 1011.20 1010.66 1010.63 1010.24 1009.62 1009.58 1009.36 1008.76 1008.51 1008.56 1008.47 1008.31 1008.56
1016.91 1016.44 1015.95 1015.46 1015.00 1014.54 1014.14 1013.80 1013.54 1013.36 1013.02 1012.67 1012.38 1012.15 1011.73 1011.27 1010.08 1008.93 1009.20 1009.34 1009.47 1009.62 1009.84 1010.04 1010.36 1011.00 1011.63 1011.83 1011.80 1011.82 1011.74 1011.47 1010.90 1010.63 1010.62 1010.01 1009.61 1009.49 1009.33 1009.46 1009.02 1008.94 1009.13 1009.21 1009.25
1017.01 1016.50 1015.94 1015.37 1014.84 1014.36 1013.96 1013.53 1013.25 1013.09 1012.96 1012.69 1012.43 1012.23 1011.89 1010.81 1009.18 1009.12 1009.08 1009.35 1009.52 1009.75 1009.83 1010.02 1010.25 1010.61 1011.38 1011.76 1011.93 1011.74 1011.62 1011.25 1010.49 1010.40 1009.94 1009.80 1009.73 1009.84 1010.08 1010.10 1010.11 1010.05 1010.45 1010.58 1010.64
1017.02 1016.44 1015.88 1015.20 1014.63 1014.13 1013.68 1013.20 1012.89 1012.79 1012.67 1012.55 1012.40 1012.26 1011.69 1010.16 1009.28 1009.28 1009.30 1009.38 1009.51 1009.78 1009.90 1009.80 1009.98 1010.57 1011.34 1011.75 1011.80 1011.86 1011.77 1011.16 1010.58 1010.37 1009.98 1009.88 1010.29 1010.89 1011.15 1010.86 1011.12 1011.24 1011.37 1011.50 1011.56
1017.03 1016.36 1015.72 1015.06 1014.48 1013.89 1013.36 1012.76 1012.40 1012.33 1012.34 1012.38 1012.36 1012.27 1011.17 1009.46 1009.23 1009.29 1009.48 1009.40 1009.32 1009.63 1009.88 1009.72 1010.00 1010.72 1011.41 1011.81 1012.10 1012.26 1012.16 1011.76 1010.90 1010.47 1009.98 1010.26 1011.14 1011.92 1011.68 1011.30 1012.02 1012.06 1012.08 1011.98 1011.86
1016.94 1016.19 1015.51 1014.84 1014.24 1013.63 1013.06 1012.49 1011.95 1012.02 1012.18 1012.27 1012.39 1011.97 1010.56 1009.30 1009.32 1008.93 1009.18 1009.48 1009.26 1009.42 1009.60 1009.91 1010.40 1011.61 1012.07 1012.62 1012.92 1012.95 1012.76 1012.23 1011.33 1010.74 1010.54 1010.75 1011.80 1012.57 1012.32 1012.15 1012.56 1012.58 1012.45 1012.29 1011.84
1016.82 1016.02 1015.21 1014.52 1013.97 1013.39 1012.68 1012.40 1012.21 1012.09 1012.32 1012.22 1012.06 1011.87 1010.26 1009.53 1009.04 1008.82 1008.87 1009.19 1009.33 1009.62 1010.10 1010.59 1011.65 1012.39 1013.12 1013.32 1013.67 1013.39 1013.08 1012.41 1011.81 1011.19 1010.97 1011.35 1012.48 1012.89 1013.00 1012.85 1013.16 1013.14 1012.81 1012.56 1012.25
1016.64 1015.89 1014.99 1014.26 1013.60 1013.16 1012.58 1012.42 1012.76 1012.36 1012.06 1011.51 1011.35 1010.92 1010.19 1009.35 1008.94 1008.73 1008.78 1009.10 1009.71 1010.28 1011.18 1011.66 1012.50 1012.79 1012.70 1012.76 1012.67 1012.85 1012.95 1012.82 1012.04 1011.46 1011.50 1011.80 1012.54 1013.06 1013.27 1013.33 1013.34 1013.44 1013.17 1012.92 1012.56
1016.41 1015.66 1014.70 1013.95 1013.31 1012.84 1012.71 1012.48 1012.46 1012.31 1011.76 1010.84 1010.72 1010.42 1009.83 1009.50 1009.43 1008.94 1008.85 1009.59 1010.22 1011.02 1011.46 1012.14 1012.34 1011.92 1011.92 1011.98 1012.41 1012.64 1012.69 1012.64 1012.25 1011.74 1012.08 1012.13 1012.90 1013.28 1013.40 1013.41 1013.51 1013.63 1013.49 1013.10 1012.52
1016.31 1015.46 1014.35 1013.50 1012.93 1012.58 1012.64 1012.18 1011.89 1011.73 1011.88 1010.63 1010.06 1009.65 1009.24 1009.57 1009.47 1009.24 1009.33 1009.84 1010.56 1011.23 1011.85 1012.27 1012.06 1011.67 1011.67 1011.73 1012.04 1012.27 1012.57 1012.68 1012.70 1012.35 1012.49 1012.81 1013.62 1013.58 1013.52 1013.34 1013.39 1013.53 1013.52 1013.30 1013.01
1016.16 1015.27 1014.26 1013.31 1012.97 1013.32 1012.58 1011.93 1011.59 1011.45 1011.89 1010.65 1009.70 1008.89 1008.99 1009.22 1009.61 1009.45 1009.61 1010.13 1010.80 1011.58 1012.00 1012.36 1012.08 1011.92 1011.65 1011.87 1012.10 1012.36 1012.40 1012.72 1013.06 1013.48 1013.94 1013.83 1014.36 1013.87 1013.66 1013.53 1013.46 1013.40 1013.29 1013.06 1012.71
1015.81 1015.13 1014.40 1013.78 1013.92 1013.17 1012.44 1011.89 1011.46 1011.55 1011.73 1010.51 1009.43 1008.68 1009.12 1009.72 1009.90 1010.24 1010.17 1010.26 1011.28 1012.00 1012.65 1012.91 1012.78 1012.52 1012.36 1012.62 1012.35 1012.63 1012.70 1013.41 1013.80 1014.46 1014.95 1015.03 1015.38 1014.03 1013.82 1013.73 1013.69 1013.36 1013.23 1012.84 1012.61
1015.43 1014.79 1014.35 1014.06 1014.01 1012.64 1012.11 1011.78 1011.71 1012.36 1011.64 1010.66 1010.10 1009.91 1010.27 1010.61 1010.92 1011.03 1011.01 1011.06 1011.90 1012.63 1013.22 1013.55 1013.18 1013.09 1012.95 1012.62 1012.77 1012.92 1013.46 1014.38 1015.24 1015.92 1016.20 1015.96 1015.96 1014.54 1014.08 1013.81 1013.81 1013.69 1013.48 1013.17 1012.75
1014.98 1014.32 1014.04 1013.58 1013.11 1012.27 1012.01 1012.22 1012.89 1012.44 1011.85 1011.63 1011.32 1011.25 1011.53 1012.03 1012.20 1012.29 1012.68 1012.92 1013.56 1013.90 1014.86 1014.44 1013.94 1013.52 1013.27 1013.16 1013.16 1013.79 1015.00 1016.38 1017.17 1017.55 1017.38 1016.68 1016.37 1014.61 1013.90 1013.67 1013.74 1013.84 1013.49 1013.10 1012.76
1014.85 1014.07 1013.60 1012.99 1012.54 1012.40 1012.45 1013.13 1013.20 1012.60 1012.20 1011.94 1012.03 1012.08 1012.66 1012.86 1013.29 1013.36 1013.62 1014.10 1014.24 1014.61 1015.49 1015.54 1014.76 1014.30 1013.91 1013.92 1014.29 1014.94 1016.07 1017.76 1019.08 1019.66 1018.72 1017.32 1016.51 1014.45 1013.89 1013.73 1013.81 1013.69 1013.49 1013.02 1012.62
1014.97 1013.73 1013.42 1012.57 1012.37 1012.35 1013.24 1013.93 1013.25 1012.65 1012.31 1012.28 1012.59 1013.08 1013.56 1013.52 1013.67 1013.90 1014.15 1014.42 1014.40 1014.66 1015.40 1015.76 1015.45 1014.72 1014.24 1014.08 1014.56 1015.19 1016.48 1017.66 1019.12 1020.27 1019.84 1018.02 1016.22 1014.42 1014.07 1013.99 1013.82 1013.65 1013.37 1013.04 1012.54
1016.40 1015.09 1013.37 1012.26 1012.18 1012.58 1013.58 1013.76 1013.20 1012.43 1012.30 1012.50 1013.00 1013.50 1014.12 1014.29 1014.33 1014.36 1014.48 1014.48 1014.46 1014.62 1015.06 1015.97 1016.20 1015.45 1014.86 1014.28 1014.63 1015.04 1016.33 1017.68 1019.18 1020.45 1020.03 1018.30 1017.00 1015.45 1014.64 1014.61 1014.22 1014.02 1013.60 1012.99 1012.38
1016.66 1015.25 1012.86 1012.29 1012.34 1013.36 1014.22 1013.82 1012.90 1012.22 1012.06 1012.53 1013.06 1013.64 1014.06 1014.43 1014.60 1014.62 1014.81 1014.75 1014.64 1014.85 1015.20 1016.04 1016.81 1016.41 1015.79 1015.22 1015.38 1015.70 1016.40 1017.80 1019.10 1019.94 1020.28 1018.90 1016.85 1014.96 1014.86 1014.80 1014.65 1014.17 1013.50 1012.82 1012.11
1017.92 1016.14 1012.81 1012.30 1013.62 1014.72 1014.50 1013.64 1012.57 1012.32 1012.22 1012.47 1012.97 1013.49 1013.91 1014.28 1014.58 1014.67 1014.62 1014.53 1014.60 1014.88 1015.55 1016.46 1017.45 1017.72 1016.84 1015.80 1015.56 1015.64 1016.19 1017.32 1018.67 1019.54 1019.62 1019.14 1016.50 1014.82 1014.66 1014.57 1014.32 1013.90 1013.22 1012.43 1011.84
1019.31 1017.13 1013.40 1012.96 1014.40 1015.16 1014.44 1013.58 1012.78 1012.49 1012.41 1012.62 1013.05 1013.38 1013.83 1014.32 1014.79 1014.79 1014.74 1014.74 1014.91 1015.19 1015.58 1016.44 1017.71 1018.16 1017.29 1016.77 1016.04 1016.06 1016.20 1016.80 1017.83 1018.64 1018.78 1018.62 1016.16 1014.58 1014.48 1014.38 1013.95 1013.60 1012.81 1012.15 1011.62
1019.65 1018.27 1015.79 1015.10 1015.65 1015.50 1015.08 1014.07 1013.21 1012.50 1012.48 1012.72 1013.24 1013.55 1014.09 1014.61 1014.79 1015.07 1015.08 1014.88 1014.96 1015.28 1015.73 1016.34 1017.95 1018.48 1018.35 1017.50 1016.92 1016.66 1016.28 1016.51 1017.31 1017.99 1017.93 1017.16 1015.70 1014.61 1014.48 1014.27 1013.84 1013.21 1012.51 1011.85 1011.46
1019.87 1019.42 1018.92 1017.54 1016.99 1016.53 1015.75 1014.79 1013.82 1013.27 1012.96 1013.06 1013.70 1013.86 1014.36 1015.01 1015.21 1015.38 1015.47 1015.48 1015.38 1015.63 1016.20 1016.84 1017.88 1018.23 1017.81 1017.23 1016.96 1016.40 1015.92 1015.68 1016.35 1016.40 1016.86 1015.82 1015.68 1014.68 1014.32 1014.07 1013.64 1013.00 1012.30 1011.80 1011.26
1020.57 1020.03 1019.20 1018.45 1017.80 1016.97 1016.25 1015.56 1014.79 1014.05 1013.65 1013.68 1013.99 1014.31 1014.57 1015.04 1015.17 1015.44 1015.68 1016.11 1016.02 1016.21 1016.66 1017.37 1017.90 1018.06 1017.53 1016.63 1016.39 1015.82 1015.27 1015.13 1015.20 1015.38 1015.53 1015.14 1014.70 1013.87 1013.68 1013.62 1013.31 1012.71 1012.20 1011.78 1011.32
1020.74 1020.45 1019.83 1018.91 1018.25 1017.73 1016.76 1015.97 1015.44 1015.07 1014.07 1013.83 1014.10 1014.61 1014.92 1014.78 1014.75 1014.78 1015.08 1015.50 1015.63 1016.35 1017.14 1017.73 1017.86 1018.35 1017.68 1016.70 1015.92 1015.36 1014.44 1014.42 1014.44 1014.50 1014.75 1014.67 1013.98 1013.63 1013.58 1013.46 1012.96 1012.48 1012.21 1011.82 1011.36
Wind_Speed
16 14 13 12 11 10 10 10 10 10 10 11 12 12 14 15 12 2 1 6 2 2 4 5 4 3 3 3 3 4 6 2 4 4 3 4 5 3 2 2 4 3 2 3 5
18 17 16 15 13 11 11 10 10 10 11 12 13 12 13 13 4 3 7 5 4 2 4 6 7 4 5 3 4 6 4 8 3 1 1 4 1 3 2 5 2 4 5 4 2
18 17 17 16 15 12 12 11 10 11 12 13 14 12 12 7 3 4 4 4 7 3 1 1 2 3 6 2 4 1 3 3 2 4 1 3 4 2 2 6 7 7 6 5 3
19 19 18 17 16 15 14 12 10 10 10 12 13 13 12 2 3 4 5 10 7 2 1 3 7 5 4 2 2 2 2 3 4 3 2 4 2 3 5 10 2 7 6 5 7
20 20 19 18 17 15 14 13 11 10 9 10 11 12 2 3 3 4 7 6 2 2 3 2 5 3 2 2 4 1 1 4 7 9 7 6 5 6 5 9 9 8 8 10 10
19 19 20 19 18 16 15 13 11 9 9 9 9 11 2 1 2 6 4 2 1 1 1 2 2 3 3 1 2 3 3 8 7 5 3 2 3 3 7 8 13 15 13 12 11
20 20 19 19 19 18 16 15 11 10 7 6 6 3 3 7 2 5 1 1 2 3 3 3 4 3 4 3 1 2 5 5 2 4 4 1 3 7 7 8 13 12 8 8 7
21 21 20 21 20 19 19 17 15 9 5 4 2 0 4 2 2 4 1 4 4 4 3 4 4 5 3 1 6 4 5 4 5 6 3 3 6 9 7 13 9 9 9 8 8
22 22 21 22 22 21 18 19 6 5 3 4 1 1 5 5 2 2 4 2 3 2 1 4 4 4 5 4 6 6 0 1 7 3 2 5 1 6 7 9 8 7 7 9 10
23 23 23 23 23 20 20 4 4 6 1 2 1 2 3 1 4 2 4 3 3 2 4 7 6 4 4 5 2 2 2 4 4 3 4 3 2 4 6 8 6 7 8 10 10
24 24 24 23 23 19 7 2 5 4 3 4 3 2 4 6 3 2 0 3 3 9 4 4 6 1 4 7 4 4 3 3 5 4 3 1 5 4 1 5 8 8 8 8 9
25 25 25 24 22 18 1 5 2 3 6 2 3 4 5 1 3 4 2 2 4 3 2 7 1 4 5 2 4 3 2 4 6 4 3 4 5 4 2 1 1 4 7 7 11
26 26 26 24 24 3 2 4 4 3 3 7 4 3 3 6 4 5 3 2 3 3 4 4 5 5 4 2 3 2 3 3 5 3 3 1 1 4 4 2 3 2 4 6 8
26 26 25 27 2 4 2 6 6 3 5 4 2 1 3 2 2 2 2 3 4 3 3 2 5 6 5 3 3 2 1 3 4 4 3 3 5 4 4 5 4 6 6 7 10
27 24 21 9 2 2 4 7 3 5 3 2 1 1 6 2 1 9 4 4 3 2 7 6 5 7 7 5 3 6 4 2 2 1 2 2 4 6 1 3 6 8 10 11 11
29 25 16 2 1 6 7 5 4 7 1 2 3 5 5 7 6 5 7 7 3 4 5 3 5 3 3 4 2 5 1 5 4 3 3 1 4 7 2 2 5 6 8 9 11
32 27 7 1 1 5 4 5 6 5 3 5 3 4 4 6 7 5 5 8 4 5 7 7 4 5 4 6 5 10 7 5 7 6 5 1 3 8 3 2 2 7 11 10 11
34 21 4 3 3 5 4 6 2 1 1 1 4 4 5 5 3 4 2 3 4 5 3 5 8 5 7 1 3 4 3 6 4 2 6 3 4 5 3 1 5 7 9 9 10
27 4 2 3 2 2 7 4 6 3 1 2 3 5 5 5 3 4 3 2 1 2 3 4 5 4 3 2 2 1 4 3 6 2 2 4 7 6 4 6 7 9 11 12 12
5 5 4 7 3 5 6 4 2 2 3 3 2 2 2 3 3 3 2 4 1 2 3 2 3 1 6 3 3 5 5 4 4 3 4 5 6 6 4 7 9 11 12 13 12
3 4 3 7 3 6 4 5 4 1 3 3 3 3 3 2 1 1 2 3 4 2 3 3 4 6 3 1 2 4 3 5 4 4 3 4 7 6 2 6 9 11 12 12 12
4 3 4 2 5 1 2 4 2 3 4 2 4 2 3 3 0 0 2 3 3 1 1 1 4 4 6 5 3 2 3 4 3 2 3 1 8 2 6 8 8 11 12 13 10
3 4 4 3 3 1 4 2 2 4 3 3 3 2 2 4 1 3 2 4 4 4 2 5 1 4 9 6 5 1 2 4 3 3 4 3 8 1 7 9 10 10 12 12 9
3 5 6 6 2 3 3 2 2 3 3 4 3 3 3 1 1 2 1 2 3 1 6 6 3 7 7 8 3 5 4 4 5 3 3 7 9 13 10 9 12 13 13 13 11
2 2 2 4 3 3 1 2 1 1 1 2 2 3 5 3 1 3 2 3 3 4 3 5 3 4 6 10 4 10 12 10 8 6 6 6 7 11 10 8 10 9 11 11 11
2 2 3 2 3 3 3 2 1 5 5 3 5 5 3 6 8 7 5 4 6 1 3 2 2 2 5 3 2 8 7 5 4 4 7 8 11 7 6 7 7 14 11 13 11
2 2 2 2 2 1 2 1 0 2 1 3 5 4 3 7 7 9 8 7 7 9 6 4 5 2 5 3 6 5 7 6 4 5 5 5 10 4 8 9 9 9 12 12 11
Wind_Direction
12 5 357 350 344 338 335 331 326 321 317 315 318 325 327 330 320 130 20 210 137 22 338 316 59 4 70 70 59 126 63 114 204 152 300 321 12 307 312 352 321 337 163 212 133
10 7 4 356 348 343 335 329 325 322 319 320 322 330 330 335 3 354 243 188 120 6 3 16 16 24 53 40 25 74 93 209 216 154 350 284 216 297 335 325 290 313 290 259 290
5 3 1 357 352 344 337 329 323 322 322 321 321 330 331 328 33 284 231 110 119 79 64 86 111 57 58 14 0 134 165 219 238 225 345 251 296 238 267 298 225 258 285 299 300
1 359 356 352 347 341 337 334 324 316 314 315 318 324 324 322 93 263 69 107 111 110 31 21 25 49 64 46 340 138 217 153 270 230 301 231 218 227 203 240 242 259 293 283 296
355 352 350 347 341 335 330 328 325 312 302 304 313 322 344 22 256 317 88 93 92 3 41 51 55 97 50 308 346 134 248 261 263 271 246 298 256 227 280 346 348 339 348 337 356
351 346 343 341 336 331 327 321 313 310 299 300 313 315 18 114 282 341 126 105 194 18 321 146 170 144 99 5 138 299 287 286 281 327 251 245 330 72 19 1 47 55 48 44 43
346 342 340 338 333 330 328 319 311 302 291 289 309 329 71 224 20 14 125 258 174 168 291 230 160 112 129 348 259 307 335 332 312 338 309 58 41 73 345 65 51 41 43 31 23
343 339 338 337 334 331 329 320 309 279 253 262 278 219 243 257 323 316 85 317 252 216 217 273 126 102 62 286 15 50 44 44 301 343 323 92 278 358 16 73 46 32 19 16 1
341 336 336 335 335 332 328 323 337 141 157 152 124 116 280 309 289 285 147 236 257 48 39 79 64 82 29 52 13 9 40 228 325 339 329 43 318 340 6 53 40 14 11 1 356
339 334 334 332 332 332 325 268 79 117 132 181 270 58 304 267 298 255 190 233 30 30 55 44 48 59 38 65 208 262 356 323 286 279 16 4 114 343 1 47 29 -0 3 2 357
338 334 330 331 329 331 337 83 18 353 60 193 218 239 273 276 300 280 89 80 33 60 40 5 66 255 252 214 200 139 189 246 268 278 359 261 165 192 337 25 27 5 358 345 340
336 334 330 329 326 325 252 76 120 206 318 263 234 268 259 148 325 303 79 46 54 32 4 24 340 240 278 185 171 182 201 273 281 268 143 276 188 196 218 228 345 332 339 327 329
335 333 330 330 320 349 5 80 323 156 87 301 198 201 222 133 214 276 114 115 63 30 23 141 268 312 293 244 144 189 161 257 245 316 303 53 319 214 236 260 335 331 295 310 316
333 334 334 328 17 320 67 335 333 162 67 293 315 324 107 192 18 93 70 104 19 14 352 283 319 4 24 56 55 340 330 253 268 24 280 20 273 266 236 288 322 320 322 317 331
333 335 336 346 264 69 311 328 315 57 78 255 6 349 344 112 337 358 353 31 20 27 63 282 4 2 26 327 316 239 356 10 327 122 44 346 73 267 316 285 325 338 328 330 328
332 334 336 70 74 256 317 317 57 49 184 348 36 340 51 17 16 356 21 36 58 77 22 301 288 54 313 303 11 293 12 42 52 78 38 138 103 280 218 218 317 297 305 305 313
332 331 311 165 255 322 321 47 45 118 335 329 13 3 80 21 14 39 29 22 49 36 358 338 339 321 25 360 358 40 47 347 357 6 230 147 27 245 251 221 261 304 306 308 310
328 320 212 233 287 338 51 53 136 195 85 326 42 55 78 5 44 4 64 36 30 70 77 47 333 13 324 178 248 359 108 147 215 265 291 318 230 260 245 180 313 296 290 296 314
323 325 305 275 217 106 71 68 194 211 151 50 56 73 7 1 58 65 25 167 170 77 79 50 290 321 293 290 117 112 48 153 103 18 345 274 292 325 18 334 321 317 332 317 308
329 337 290 321 144 61 76 206 207 225 110 70 115 108 127 330 48 46 13 346 76 39 122 152 327 311 289 19 24 91 156 33 12 27 301 292 290 247 302 321 320 317 304 299 293
6 12 259 340 73 50 140 217 221 115 127 124 157 125 147 126 209 40 352 11 19 29 79 119 117 286 324 108 166 0 34 59 116 134 195 295 268 218 237 283 294 291 289 295 297
351 338 304 29 53 59 151 201 247 149 65 76 105 130 144 149 62 148 154 146 13 299 324 64 140 271 248 278 287 277 155 121 122 251 226 257 272 264 248 290 283 284 295 301 298
352 271 311 62 126 311 302 288 217 145 177 143 146 156 151 169 129 200 192 156 50 25 189 181 5 350 348 353 9 358 314 138 106 61 218 202 262 216 301 312 309 295 301 301 301
18 337 323 39 38 112 31 295 314 357 140 114 115 85 107 122 76 208 221 204 316 297 114 104 134 161 188 228 183 292 265 248 186 189 224 233 278 300 303 307 310 306 302 303 306
39 281 193 321 6 5 210 296 308 263 48 112 40 162 155 160 307 248 228 312 323 141 81 117 201 182 244 254 240 260 268 273 194 207 188 257 231 278 284 291 288 282 290 306 310
346 21 353 290 310 300 359 82 1 313 164 225 164 188 167 164 192 217 197 192 227 187 129 8 241 189 288 281 238 266 266 251 208 212 247 265 283 239 281 296 290 300 308 311 316
340 306 118 278 341 114 225 284 134 326 302 188 164 140 187 235 220 232 205 203 196 170 181 167 150 107 261 323 323 315 223 220 255 248 217 268 272 296 304 305 296 292 306 302 306